Location: Coupvray
(48.8929°N, 2.7967°E)
Time: 08:42:15
(UTC+00:00)

Gbstr 26 Del rocket - Pass Details

Date: 14 July 2020
Orbit: 493 x 1264 km, 51.8° (Epoch: 14 August)

Event Time Altitude Azimuth Distance (km) Brightness Sun altitude
Rises 01:37:00 0° 290° (WNW) 2,637 6.3 -15.9°
Reaches altitude 10° 01:39:04 10° 290° (WNW) 1,798 5.4 -15.7°
Maximum altitude 01:43:06 89° 15° (NNE) 600 2.9 -15.5°
Drops below altitude 10° 01:47:54 10° 111° (ESE) 2,130 5.9 -15.1°
Sets 01:50:31 0° 112° (ESE) 3,175 6.8 -14.9°
